#timestamp,LO_Frequency,Hit,StdDev 
1552071615.1,286046999.6,N
1552071616.0,286046999.6,N
1552071635.8,286046998.4,N
1552071655.7,286046996.5,N
1552071675.5,286047001.1,N
1552071695.3,286046999.0,N
1552071715.2,286046998.7,N
1552071735.0,286046999.7,N
1552071735.9,286046999.7,N
1552071755.8,286047000.8,N
1552071775.6,286047000.0,N
1552071795.4,286047001.8,N
1552071815.3,286047002.0,N
1552071835.1,286047002.1,N
1552071836.0,286047002.1,N
1552071855.8,286047002.2,N
1552071875.7,286047002.1,N
1552071895.5,286047002.7,N
1552071915.4,286046999.7,N
1552071935.2,286047001.9,N
1552071955.0,286047002.8,N
1552071955.9,286047002.8,N
1552071975.8,286047000.8,N
1552071995.6,286047000.6,N
1552072015.4,286047000.9,N
1552072035.3,286046999.7,N
1552072055.1,286047000.2,N
1552072075.9,286047000.3,N
1552072095.7,286047000.0,N
1552072115.5,286046998.6,N
1552072135.4,286047000.8,N
1552072155.2,286046998.7,N
1552072175.0,286047001.2,N
1552072175.9,286047001.2,N
1552072195.8,286047001.2,N
1552072215.6,286046998.3,N
1552072235.5,286047000.5,N
1552072255.3,286046996.5,N
1552072275.1,286046997.7,N
1552072295.9,286046994.9,Y
1552072315.7,286046997.0,P
1552072335.6,286046995.3,N
1552072355.4,286046995.3,N
1552072375.2,286046997.7,N
1552072395.1,286046996.8,N
1552072396.0,286046996.8,N
1552072415.8,286046997.2,N
1552072435.6,286046995.4,N
1552072455.5,286046998.0,N
1552072475.3,286046995.8,N
1552072495.2,286046993.5,Y
1552072515.9,286046996.5,P
1552072535.7,286046998.8,P
1552072555.6,286046996.7,P
1552072575.4,286046997.7,N
1552072595.2,286046997.5,N
1552072615.1,286046997.8,N
1552072616.0,286046997.8,Y
1552072635.8,286047000.8,P
1552072655.7,286047000.3,N
1552072675.5,286047001.0,N
1552072695.3,286047000.4,N
1552072715.2,286047000.0,N
1552072735.0,286046999.9,N
1552072735.9,286046999.9,N
1552072755.8,286047001.0,N
1552072775.6,286047001.2,N
1552072795.4,286047000.8,N
1552072815.3,286046998.9,N
1552072835.1,286046998.8,N
1552072855.8,286046999.4,N
1552072875.7,286046998.8,N
1552072895.5,286046999.2,N
1552072915.4,286046998.5,N
1552072935.2,286046999.0,N
1552072955.0,286046996.5,Y
1552072955.9,286046996.5,P
1552072975.8,286046997.0,N
1552072995.6,286046997.7,N
1552073015.4,286046997.3,N
1552073035.3,286046995.0,Y
1552073055.1,286046996.5,P
1552073075.9,286046997.8,P
1552073095.7,286046998.0,P
1552073115.5,286046997.6,Y
1552073135.4,286047000.5,P
1552073155.2,286047002.3,N
1552073175.1,286047001.9,N
1552073176.0,286047001.9,N
1552073195.8,286047001.5,N
1552073215.6,286047002.4,N
1552073235.5,286046999.8,N
1552073255.3,286046999.7,N
1552073275.2,286047000.1,N
1552073295.9,286047000.7,N
1552073315.7,286047000.9,N
1552073335.6,286047000.6,N
1552073355.4,286046998.2,N
1552073375.2,286046998.3,N
1552073395.1,286046998.7,N
1552073396.0,286046998.7,N
1552073415.8,286046998.7,N
1552073435.7,286046999.0,N
1552073455.5,286046998.5,N
1552073475.3,286046998.5,N
1552073495.2,286046999.4,N
1552073515.0,286046998.5,N
1552073515.9,286046998.5,N
1552073535.7,286047000.1,N
1552073555.6,286047000.7,N
1552073575.4,286047001.1,N
1552073595.3,286046998.3,N
1552073615.1,286046998.5,N
1552073635.8,286046998.2,N
1552073655.7,286046998.5,N
1552073675.5,286046998.3,N
1552073695.4,286047000.0,N
1552073715.2,286047000.2,N
1552073735.0,286047000.2,N
1552073735.9,286047000.2,N
1552073755.8,286046999.8,N
1552073775.6,286047000.4,N
1552073795.4,286046999.0,N
1552073815.3,286046998.4,N
1552073835.1,286046999.1,N
1552073855.9,286046999.6,N
1552073875.7,286046997.7,N
1552073895.5,286046999.5,N
1552073915.4,286046999.3,N
1552073935.2,286046996.5,Y
1552073955.1,286047001.1,P
1552073956.0,286047001.1,N
1552073975.8,286046998.7,N
1552073995.6,286046998.6,N
1552074015.5,286046998.4,N
1552074035.3,286046999.2,N
1552074055.1,286046999.0,N
1552074075.3,286046999.0,N
1552074095.2,286046998.8,N
1552074115.0,286046999.4,N
1552074115.9,286046999.4,N
1552074135.7,286046998.6,N
1552074155.6,286046998.1,N
1552074175.4,286046998.2,N
1552074195.6,286047000.9,N
1552074215.4,286047000.9,N
1552074235.2,286047000.4,N
1552074255.1,286047000.8,N
1552074256.0,286047000.8,N
1552074275.8,286047000.7,N
1552074295.7,286047000.9,N
1552074315.5,286047000.5,N
1552074335.3,286047001.1,N
1552074355.2,286047000.5,N
1552074375.0,286046999.3,N
1552074375.9,286046999.3,N
1552074395.8,286046996.6,Y
1552074415.6,286046997.7,P
1552074435.4,286046997.6,N
1552074455.3,286046999.1,N
1552074475.1,286046999.6,N
1552074495.8,286046999.6,N
1552074515.7,286046998.6,N
1552074535.5,286046998.3,N
1552074555.3,286046999.3,N
1552074575.2,286046998.9,N
1552074595.0,286046998.2,N
1552074595.9,286046998.2,N
1552074615.8,286046998.3,N
1552074635.6,286046998.3,N
1552074655.4,286046998.4,N
1552074675.3,286046999.1,N
1552074695.1,286046998.4,N
1552074715.9,286046998.4,N
1552074735.7,286046998.2,N
1552074755.5,286047001.2,N
1552074775.4,286046998.4,N
1552074795.2,286047000.9,N
1552074815.0,286047000.6,N
1552074815.9,286047000.6,N
1552074835.8,286047000.6,N
1552074855.6,286047000.7,N
1552074875.5,286046999.5,N
1552074895.3,286046998.5,N
1552074915.1,286046998.2,N
1552074935.9,286046998.4,N
1552074955.7,286046998.9,N
1552074975.5,286046997.7,N
1552074995.4,286046997.8,N
1552075015.2,286046996.5,Y
1552075035.1,286047001.2,P
1552075036.0,286047001.2,N
1552075055.8,286046999.9,N
1552075075.6,286047000.1,N
1552075095.5,286047000.2,N
1552075115.3,286047000.2,N
1552075135.2,286047004.0,Y
1552075155.9,286047001.9,P
1552075175.7,286047002.5,P
1552075195.6,286047002.2,N
